Regional Weather Roundup
Issued by NWS

Home | Current Version | Previous Version | Text Only | Print | Product List | Glossary On
Versions: 1 2 3 4 5 6 7 8 9 10 11 12 13 14 15 16 17 18 19 20 21 22 23 24 25 26 27 28 29 30 31 32 33 34 35 36 37 38 39 40 41 42 43 44 45 46 47 48 49 50
000
ASUS43 KDTX 212210
RWRMI
MICHIGAN HOURLY REGIONAL WEATHER ROUNDUP
NATIONAL WEATHER SERVICE DETROIT/PONTIAC MI
ISSUED BY NATIONAL WEATHER SERVICE GRAND RAPIDS MI
500 PM EST TUE FEB 21 2017

NOTE: "FAIR" INDICATES FEW OR NO CLOUDS BELOW 12,000 FEET WITH NO
SIGNIFICANT WEATHER AND/OR OBSTRUCTION TO VISIBILITY.

MIZ047>049-052>055-059>063-066>070-074>076-081>083-212300-
SOUTHEAST LOWER MICHIGAN

CITY           SKY/WX    TMP DP  RH WIND       PRES   REMARKS
ADRIAN         PTSUNNY   56  49  77 SW8       29.95R
ALMA           SUNNY     57  48  71 W10       29.91R
ANN ARBOR      CLOUDY    60  50  69 S12       29.93R
BAD AXE        CLOUDY    51  49  92 W3        29.91R FOG
DETROIT CITY   PTSUNNY   57  46  66 SW3       29.92S
DETROIT        CLOUDY    57  47  69 S9        29.95R
FLINT          MOSUNNY   58  52  80 W10       29.91S
GROSSE ILE     MOSUNNY   46  42  88 S5        29.93R
HILLSDALE      CLOUDY    55  50  82 S5        29.93R
HOWELL         CLOUDY    59  50  72 SW5       29.91S

CITY           SKY/WX    TMP DP  RH WIND       PRES   REMARKS
JACKSON        MOSUNNY   61  50  67 SW7       29.91S
LANSING        CLOUDY    58  51  78 W13       29.92S
MASON          PTSUNNY   61  53  74 W7        29.91S
MONROE         CLOUDY    57  50  78 SW3       29.93F
MT. CLEMENS    CLOUDY    46  42  83 NE5       29.90S
PONTIAC        PTSUNNY   59  50  72 S7        29.90F
PORT HOPE        N/A     50  47  89 SW7       29.88R
PORT HURON     CLOUDY    52  45  76 S3        29.92F
TRI CITIES     CLOUDY    56  50  80 SW9       29.91R
YPSILANTI      CLOUDY    58  49  72 S9        29.94R
$$
MIZ043>046-050>051-056>058-064>065-071>073-077>080-212300-
SOUTHWEST LOWER MICHIGAN

CITY           SKY/WX    TMP DP  RH WIND       PRES   REMARKS
BATTLE CREEK   PTSUNNY   61  53  75 SW6       29.92S
BENTON HARBOR  MOSUNNY   58  52  80 CALM      29.92R
BIG RAPIDS     SUNNY     58  42  55 W3        29.89S
COLDWATER      CLOUDY    60  51  73 S5        29.93S
HOLLAND        PTSUNNY   54  48  80 W5        29.93S
GRAND RAPIDS   PTSUNNY   55  49  80 SW13      29.91S
KALAMAZOO      CLOUDY    62  51  67 NW8       29.92S
MARSHALL       PTSUNNY   61  52  72 W6        29.91S
MOUNT PLEASANT SUNNY     57  47  68 W6        29.89R
MUSKEGON       MOSUNNY   52  44  74 CALM      29.92R
STURGIS        PTSUNNY   59  53  78 SW5       29.93R
$$
MIZ016>042-212300-
NORTHERN LOWER MICHIGAN

CITY           SKY/WX    TMP DP  RH WIND       PRES   REMARKS
ALPENA         SUNNY     59  38  45 W5        29.85R
BEAVER ISLAND  SUNNY     47  39  73 SW10      29.84S
BELLAIRE       SUNNY     56  38  51 S3        29.86S
CADILLAC       SUNNY     57  38  49 SW6       29.86F
CHARLEVOIX     SUNNY     52  40  62 SW7       29.88S
GAYLORD        SUNNY     51  34  52 SW9       29.85S
HOUGHTON LAKE  SUNNY     53  41  63 SW6       29.88S
MANISTEE       SUNNY     53  38  56 W6        29.88F
OSCODA         SUNNY     56  44  64 W9        29.86S
PELLSTON       SUNNY     49  38  65 W12       29.85S
TRAVERSE CITY  MOSUNNY   59  36  42 W8        29.85S
LUDINGTON      SUNNY     50  42  74 W5        29.89S
$$
MIZ007>008-015-212300-
EASTERN UPPER MICHIGAN

CITY           SKY/WX    TMP DP  RH WIND       PRES   REMARKS
KINROSS        CLOUDY    42  40  92 N7        29.83S
MACKINAC ISLAN SUNNY     44  43  96 W10G16    29.83F
NEWBERRY       SUNNY     51  31  46 SW7       29.81R
S. S. MARIE    SUNNY     45  35  68 NW6       29.82F
$$
MIZ004>006-011>014-085-212300-
CENTRAL UPPER MICHIGAN

CITY           SKY/WX    TMP DP  RH WIND       PRES   REMARKS
MANISTIQUE     SUNNY     46  38  75 S9        29.81S
ESCANABA       SUNNY     48  37  65 S9        29.81F
MENOMINEE      SUNNY     58  36  43 VRB7      29.83F
SAWYER-GWINN   SUNNY     54  30  40 SW10G16   29.79S
$$
MIZ001>003-009>011-084-212300-
WESTERN UPPER MICHIGAN

CITY           SKY/WX    TMP DP  RH WIND       PRES   REMARKS
IRON MOUNTAIN  SUNNY     58  27  30 W6        29.79S
HOUGHTON       MOSUNNY   46  32  58 W6        29.75F
COPPER HARBOR    N/A     40  33  76 CALM      29.75S
IRONWOOD       PTSUNNY   54  28  36 S7        29.74F
$$

ABBREVIATIONS USED IN REMARKS
   TC - TEMPERATURE IN CELSIUS
  WCI - WIND CHILL INDEX
   HX - HEAT INDEX
  VSB - VISIBILITY





USA.gov is the U.S. government's official web portal to all federal, state and local government web resources and services.